Location: Anciles
(42.5833°N, 0.5167°E)
Time: 09:24:30
(UTC+00:00)

CZ-4C R/B - Pass Details

Date: 10 December 2019
Orbit: 647 x 1355 km, 63.4° (Epoch: 19 January)

Event Time Altitude Azimuth Distance (km) Brightness Sun altitude
Rises 19:03:32 0° 193° (SSW) 3,011 5.3 -28.4°
Reaches altitude 10° 19:05:49 10° 186° (S) 2,152 4.4 -28.8°
Enters shadow 19:06:32 14° 182° (S) 1,899 4.1 -28.9°
